Weather History for Salisbury, MD

Change the Weather History Date:

Friday, January 24, 2014

  Actual Average Record
Temperature  
Mean Temperature 17 °F 35 °F  
Max Temperature 22 °F 44 °F 74 °F (1967)
Min Temperature 12 °F 27 °F 3 °F (1918)
Degree Days  
Heating Degree Days 48 30  
Month to date heating degree days 727 715  
Since 1 July heating degree days 2102 2339  
Cooling Degree Days 0 0  
Month to date cooling degree days 0 0  
Year to date cooling degree days 0 0  
Moisture  
Dew Point 0 °F    
Average Humidity 47    
Maximum Humidity 58    
Minimum Humidity 36    
Precipitation  
Precipitation 0.00 in 0.12 in 1.40 in (1999)
Month to date precipitation 1.41 2.76  
Year to date precipitation 1.41 2.76  
Snow  
Snow 0.00 in 0.20 in 15.00 in (1940)
Month to date snowfall 7.0 2.3  
Since 1 July snowfall 7.0 4.1  
Snow Depth 1.00 in    
Sea Level Pressure  
Sea Level Pressure 30.41 in    
Wind  
Wind Speed 8 mph (West)    
Max Wind Speed 16 mph    
Max Gust Speed 21 mph    
Visibility 10 miles    
Events      
T = Trace of Precipitation, MM = Missing Value Source: NWS Daily Summary

Daily Weather History Graph

Daily Weather History Graph

Search for Another Location

Airport:

Trip Planner

Search our weather history database for the weather conditions in past years. The results will help you decide how hot, cold, wet, or windy it might be!

Date:

Astronomy

Jan. 24, 2014 Rise Set
Actual Time 7:13 AM EST 5:15 PM EST
Civil Twilight 6:44 AM EST 5:43 PM EST
Nautical Twilight 6:12 AM EST 6:15 PM EST
Astronomical Twilight 5:41 AM EST 6:47 PM EST
Moon 12:39 AM EST (1/24) 11:31 AM EST (1/24)
Length of Visible Light 10h 59m
Length of Day
10h 02m
Last Quarter, 45% of the Moon is Illuminated
Jan 24
Last Quarter
Jan 30
New
Feb 6
First Quarter
Feb 14
Full
Feb 22
Last Quarter

Hourly Weather History & Observations

Time (EST) Temp. Windchill Dew Point Humidity Pressure Visibility Wind Dir Wind Speed Gust Speed Precip Events Conditions
12:54 AM 16.0 °F 5.3 °F -0.0 °F 49% 30.42 in 10.0 mi NW 8.1 mph - N/A   Clear
1:54 AM 15.1 °F 3.3 °F -0.0 °F 51% 30.41 in 10.0 mi NW 9.2 mph - N/A   Clear
2:54 AM 15.1 °F 3.3 °F -0.0 °F 51% 30.43 in 10.0 mi NW 9.2 mph - N/A   Clear
3:54 AM 12.9 °F 3.8 °F -0.9 °F 54% 30.45 in 10.0 mi WNW 5.8 mph - N/A   Clear
4:14 AM 12.2 °F 4.3 °F -0.4 °F 57% 30.44 in 10.0 mi WNW 4.6 mph 73.6 mph N/A   Squalls
4:54 AM 12.0 °F 4.1 °F -0.9 °F 56% 30.46 in 10.0 mi West 4.6 mph - N/A   Clear
5:54 AM 12.9 °F 1.6 °F -0.9 °F 54% 30.48 in 10.0 mi West 8.1 mph - N/A   Clear
6:54 AM 12.0 °F 2.7 °F -0.9 °F 56% 30.51 in 10.0 mi WNW 5.8 mph - N/A   Clear
7:54 AM 12.9 °F 1.6 °F -0.0 °F 56% 30.51 in 10.0 mi WNW 8.1 mph - N/A   Clear
8:54 AM 15.1 °F 2.5 °F -0.0 °F 51% 30.53 in 10.0 mi WNW 10.4 mph 18.4 mph N/A   Clear
9:54 AM 17.1 °F 3.0 °F -0.9 °F 45% 30.54 in 10.0 mi NW 13.8 mph - N/A   Clear
10:54 AM 18.0 °F 3.6 °F -0.9 °F 44% 30.53 in 10.0 mi WNW 15.0 mph - N/A   Clear
11:54 AM 19.9 °F 8.6 °F -0.0 °F 42% 30.50 in 10.0 mi WNW 10.4 mph - N/A   Clear
12:54 PM 19.9 °F 10.1 °F -0.9 °F 40% 30.45 in 10.0 mi NW 8.1 mph - N/A   Clear
1:54 PM 21.0 °F 11.4 °F -0.0 °F 40% 30.43 in 10.0 mi WNW 8.1 mph - N/A   Clear
2:54 PM 21.0 °F 11.4 °F -2.0 °F 36% 30.40 in 10.0 mi NW 8.1 mph 17.3 mph N/A   Clear
3:54 PM 21.9 °F 10.4 °F -2.0 °F 35% 30.39 in 10.0 mi West 11.5 mph - N/A   Clear
4:54 PM 19.9 °F 12.1 °F 1.0 °F 44% 30.37 in 10.0 mi WSW 5.8 mph - N/A   Clear
5:54 PM 17.1 °F 8.7 °F -0.0 °F 47% 30.37 in 10.0 mi SSW 5.8 mph - N/A   Clear
6:54 PM 15.1 °F 9.4 °F 1.0 °F 54% 30.35 in 10.0 mi South 3.5 mph - N/A   Clear
7:54 PM 14.0 °F 6.5 °F 1.0 °F 56% 30.32 in 10.0 mi South 4.6 mph - N/A   Clear
8:54 PM 14.0 °F 5.1 °F 1.0 °F 56% 30.29 in 10.0 mi South 5.8 mph - N/A   Clear
9:54 PM 15.1 °F 6.4 °F 1.9 °F 56% 30.27 in 10.0 mi South 5.8 mph - N/A   Clear
10:54 PM 17.1 °F 7.6 °F 1.9 °F 52% 30.23 in 10.0 mi South 6.9 mph - N/A   Clear
11:54 PM 18.0 °F 9.8 °F 3.0 °F 52% 30.20 in 10.0 mi South 5.8 mph - N/A   Clear